Location: Cudham
(51.3000°N, 0.0667°E)
Time: 16:35:54
(UTC+00:00)

USA 229 DEB - Pass Details

Date: 21 April 2026
Orbit: 844 x 1364 km, 63.4° (Epoch: 10 January)

Event Time Altitude Azimuth Distance (km) Brightness Sun altitude
Rises 02:29:26 0° 308° (NW) 4,082 6.7 -18.9°
Reaches altitude 10° 02:33:25 10° 287° (WNW) 3,210 6.0 -18.5°
Enters shadow 02:36:41 15° 262° (W) 2,888 5.5 -18.2°
